Wind_Speed
29 29 30 30 30 30 30 29 29 29 28 29 29 29 29 28 28 28 28 29 30 31 34 36 39 41 42 43 43 43 43 43 42 42 41 42 43 44 45 46 46 46 45 43 42 41 42 41 40 38 34 33 33 33 31 28 26 22 22 21 16 16 14 13 11 11 11 7 5 5 2 9 12 15 17 20 23 22 22 20 18 17 15 15 16 17 20 19
31 32 33 33 33 33 33 32 32 32 31 31 30 30 31 31 30 29 29 30 31 32 33 35 37 40 42 44 45 44 44 45 44 43 42 43 43 44 45 46 47 47 46 45 43 42 43 42 42 40 37 35 34 34 32 30 27 23 23 20 16 17 15 12 10 12 11 7 6 6 5 11 11 14 15 17 22 22 23 22 20 18 16 16 16 17 19 20
32 33 34 35 35 36 36 35 35 35 34 34 33 33 32 32 32 32 31 31 31 32 33 34 36 39 42 44 46 46 46 46 45 44 44 44 44 46 46 47 48 48 47 46 45 44 44 44 44 42 39 37 36 35 34 32 28 23 24 22 18 19 15 12 10 11 13 9 7 6 6 11 10 12 13 15 18 21 22 23 22 20 19 17 16 16 18 19
32 33 33 34 35 36 37 37 37 37 36 37 37 36 35 34 34 33 33 33 33 34 34 34 35 37 40 43 46 47 47 47 47 46 45 45 46 47 46 47 48 49 49 48 47 46 45 46 45 43 40 38 37 36 36 34 29 24 25 24 21 19 15 14 13 12 13 11 9 7 6 8 10 10 11 14 15 17 20 22 22 22 21 20 18 16 17 18
34 34 34 34 35 35 36 37 38 39 39 39 39 40 40 38 37 36 35 35 35 36 36 36 36 37 39 42 45 48 49 48 48 48 47 47 47 47 47 47 48 50 50 49 49 47 46 46 46 44 41 40 39 37 38 36 30 26 28 26 24 20 15 18 18 14 12 10 10 9 6 3 6 8 10 13 13 15 16 19 20 21 22 22 20 18 17 17
37 37 37 37 37 37 37 37 37 38 40 40 41 42 42 42 41 40 38 37 36 37 38 38 37 37 38 40 44 47 49 50 50 49 49 48 48 48 48 48 49 50 51 51 51 49 47 47 47 45 43 42 41 39 39 37 32 29 29 28 26 21 17 19 19 15 12 10 11 10 10 6 2 3 8 11 11 12 13 16 18 18 20 22 22 20 18 17
41 41 41 41 40 40 39 39 39 39 40 41 42 43 43 44 45 44 43 41 39 38 40 40 40 39 39 40 42 46 49 50 51 51 51 50 50 49 49 49 50 51 52 52 52 51 48 48 48 46 45 44 42 41 40 38 36 32 30 30 28 23 19 18 17 14 12 11 12 13 15 12 7 5 4 7 10 11 11 13 15 16 18 21 22 21 20 19
46 47 47 46 44 43 42 42 42 42 42 43 44 44 44 45 46 47 47 45 43 41 41 42 42 41 41 40 42 45 48 50 52 53 52 52 52 51 51 51 51 52 53 53 53 52 50 48 48 47 46 45 44 43 41 41 40 34 31 33 31 25 20 17 15 14 13 12 13 15 18 16 12 8 6 4 8 10 10 11 12 13 15 18 21 21 21 20
49 50 50 49 48 47 46 46 45 46 46 46 47 46 46 46 47 49 50 50 48 46 44 43 44 44 43 43 43 44 46 50 52 54 54 54 54 53 52 52 51 52 53 54 54 54 52 50 49 49 48 47 46 45 43 43 42 37 33 35 33 27 23 20 15 14 13 11 11 15 18 16 14 11 8 7 6 9 9 9 10 10 12 15 18 20 20 20
51 51 50 49 49 50 51 51 51 50 49 50 50 50 49 48 48 50 52 53 52 50 48 46 45 45 45 45 45 44 46 49 52 54 56 56 56 55 54 54 53 53 55 55 55 55 53 50 50 51 50 48 48 47 45 45 44 39 35 37 36 29 27 23 15 13 13 13 12 14 16 15 15 13 10 9 7 8 8 8 9 8 9 12 15 18 20 20
53 52 51 50 52 53 55 56 56 55 53 53 54 54 53 52 52 52 54 56 56 54 52 50 49 48 47 47 47 47 47 49 51 54 56 57 57 57 56 55 54 55 56 56 56 55 53 52 52 52 51 50 50 49 47 47 46 41 37 38 38 31 28 24 16 14 15 15 14 15 17 16 16 14 12 11 8 7 8 7 8 7 7 9 13 16 18 19
56 54 53 53 55 57 58 59 59 58 58 57 57 57 58 57 57 56 57 58 59 58 56 54 52 51 49 49 49 49 49 49 50 53 57 59 59 58 58 57 57 57 57 57 56 55 54 54 54 53 53 52 51 50 49 49 47 43 39 39 39 32 28 26 20 18 18 17 17 17 18 18 17 16 14 11 9 7 8 7 6 7 6 7 10 13 16 17
58 57 56 58 60 61 62 62 61 61 60 60 60 60 61 61 61 61 61 61 62 61 59 58 56 54 52 51 50 50 51 51 52 54 56 59 60 60 60 59 59 59 59 58 56 55 55 55 55 55 55 53 52 52 51 51 49 45 40 39 39 35 30 27 23 21 20 18 19 19 19 19 18 17 17 12 9 9 8 7 5 5 5 5 8 11 13 15
60 59 60 62 63 64 65 64 64 63 62 62 62 62 63 64 64 64 64 64 64 64 62 60 59 57 55 53 52 52 54 54 54 54 56 58 61 61 61 61 61 61 60 58 56 55 56 56 57 57 56 55 54 53 53 53 50 47 43 41 41 39 32 26 24 24 22 20 20 19 19 19 19 20 19 14 11 11 8 7 6 4 3 3 6 8 11 13
62 62 63 65 66 67 67 66 65 64 63 62 62 62 63 64 65 66 67 67 66 67 66 63 62 61 59 57 56 55 56 56 54 54 54 57 60 62 62 62 62 62 61 58 55 56 58 59 59 59 58 57 56 55 55 54 51 49 46 43 42 41 35 27 25 27 25 23 22 20 19 20 21 22 21 16 13 11 8 8 7 5 3 2 3 6 8 11
65 65 66 68 69 69 69 67 66 64 63 61 61 61 62 63 65 66 68 69 68 68 68 67 65 64 63 60 60 58 56 55 55 55 55 56 59 61 62 63 63 62 61 59 56 57 59 61 60 59 59 59 59 57 57 56 54 52 49 45 43 44 39 30 28 29 27 25 23 21 21 21 22 23 21 17 14 11 9 9 9 6 4 2 1 4 6 8
67 68 69 70 71 71 69 68 65 63 61 59 59 59 60 62 64 66 67 70 70 70 70 70 68 67 66 64 62 59 56 56 56 56 56 56 57 60 62 64 64 63 62 60 58 58 60 61 61 60 61 61 61 60 59 59 56 53 51 47 45 46 42 33 29 31 30 27 23 23 23 21 21 23 21 19 17 12 10 11 10 8 6 3 1 2 4 6
69 70 71 72 72 72 69 67 64 61 58 56 55 56 58 60 62 64 67 69 71 71 71 72 72 70 69 67 63 60 58 57 56 56 57 56 57 60 62 65 65 64 63 62 60 60 60 61 62 62 61 62 63 63 63 61 57 54 52 48 46 48 45 37 30 31 33 29 25 26 26 23 22 23 23 21 18 13 11 12 12 10 7 5 3 1 2 4
72 72 73 74 74 72 69 65 61 57 54 52 51 52 54 57 59 63 66 68 71 72 72 74 75 73 71 70 67 63 61 59 58 58 59 59 59 60 62 64 65 65 64 63 62 62 62 62 63 62 63 65 67 66 64 61 59 56 53 50 49 50 48 42 33 31 33 31 28 29 29 27 25 24 24 23 19 14 13 13 12 11 9 6 4 2 2 3
74 74 75 76 75 72 67 62 56 52 48 46 46 47 50 53 56 60 64 68 71 73 74 75 76 76 74 72 70 67 65 63 62 61 61 61 61 61 62 63 65 65 65 65 65 64 64 63 64 65 67 68 69 67 64 62 61 60 57 53 53 54 51 46 38 32 33 33 32 31 31 30 27 25 25 23 20 16 14 13 13 11 9 7 6 4 3 3
75 76 77 78 76 72 65 57 50 45 42 40 40 41 44 48 52 56 61 66 70 73 74 76 77 78 77 75 73 71 69 67 64 63 62 63 62 61 61 63 64 65 66 67 66 66 65 65 67 68 69 69 68 67 65 64 64 64 60 56 55 55 53 49 42 35 33 35 34 33 33 32 28 26 26 25 22 19 16 15 15 12 9 8 7 6 5 4
77 78 79 79 77 71 62 52 44 39 35 33 33 35 38 42 47 52 57 63 69 73 75 77 79 79 78 77 75 74 72 70 67 65 63 63 63 62 61 62 64 66 68 69 68 68 68 68 70 70 68 68 69 68 67 65 66 67 64 59 57 57 55 52 46 39 36 36 34 32 33 31 29 29 29 27 25 23 19 17 17 15 11 9 8 7 7 6
78 80 82 81 77 68 58 48 40 34 30 28 28 30 32 36 41 47 53 60 67 72 75 77 79 80 80 79 78 77 75 73 69 67 65 64 64 64 63 63 66 68 69 70 70 71 72 73 72 70 69 69 70 69 68 66 68 69 67 63 60 59 58 55 50 44 38 37 35 33 33 32 32 31 30 28 25 24 21 18 18 17 14 11 9 8 8 7
80 82 84 83 77 65 54 44 37 31 27 24 24 25 28 31 36 42 49 56 64 71 75 78 81 82 82 81 79 78 77 75 72 69 67 65 65 65 65 65 67 68 69 71 72 73 75 75 73 71 70 70 70 70 70 68 69 72 71 67 63 61 60 58 55 49 41 39 37 34 34 33 33 33 30 28 26 23 21 21 20 19 17 14 11 10 9 8
82 85 86 83 75 62 50 42 35 29 25 21 20 22 24 28 32 38 44 52 60 69 75 79 81 83 83 82 81 79 79 77 75 72 69 67 65 66 67 67 67 68 70 71 73 76 77 76 74 72 71 71 71 71 71 70 71 74 74 71 67 64 62 61 60 54 46 42 39 37 36 34 33 34 32 30 27 25 23 24 25 23 20 17 14 12 10 9
84 86 87 83 72 58 48 40 34 28 24 20 18 18 20 24 28 33 39 47 56 65 73 78 81 82 83 82 82 80 80 79 77 74 71 69 67 67 67 68 68 68 70 71 74 77 78 77 75 74 72 72 73 72 73 73 72 75 77 75 70 67 65 65 65 60 51 45 41 38 39 36 33 33 34 31 28 27 26 27 28 27 23 20 16 13 11 10
86 88 88 82 68 54 45 38 32 27 23 19 17 16 17 20 24 29 35 42 51 61 69 75 79 82 83 83 82 81 80 80 79 77 74 71 69 67 67 68 69 69 70 71 74 77 79 78 76 75 73 73 74 74 75 75 75 77 79 78 74 71 69 67 67 63 56 48 41 40 42 40 36 35 34 33 29 28 28 28 28 27 25 22 19 15 13 11
87 89 88 80 65 51 42 36 30 24 21 18 16 14 14 15 19 24 30 38 46 56 65 73 78 81 82 83 83 83 82 81 81 79 76 74 71 69 68 69 69 69 69 70 73 78 79 78 78 77 75 74 75 76 77 77 78 79 80 80 78 74 70 68 68 66 61 51 42 42 44 42 40 37 34 34 33 29 30 30 28 26 27 24 21 18 15 13
89 90 87 77 61 48 40 34 28 23 18 16 14 12 12 13 15 19 26 33 41 49 59 68 75 80 82 83 83 83 83 82 81 80 78 76 73 72 70 70 70 70 69 69 73 77 78 78 78 77 76 76 77 78 78 78 79 79 80 82 81 76 72 70 69 68 66 58 46 43 45 45 43 39 36 36 35 32 31 31 28 26 26 25 23 20 18 16
90 90 86 74 58 45 37 32 27 21 16 14 12 10 10 11 13 16 21 28 35 43 52 62 70 77 81 83 84 84 84 83 82 81 80 78 76 74 72 70 70 69 68 69 72 74 76 78 78 78 78 78 78 79 79 79 79 79 80 82 82 78 74 72 71 70 70 66 55 46 45 46 45 42 40 40 38 36 33 30 29 27 27 27 26 25 21 19
91 90 84 70 55 42 35 30 25 20 15 13 11 9 8 9 12 14 18 24 30 37 45 54 64 72 78 82 83 84 84 84 83 82 81 80 78 75 73 71 69 69 69 70 72 73 74 77 78 79 81 81 80 80 80 79 78 78 79 81 83 81 76 73 72 71 70 70 64 54 47 46 46 45 44 44 42 39 34 29 30 30 29 29 29 28 24 21
91 89 81 67 52 40 33 28 23 19 15 12 10 8 7 7 10 13 16 21 26 33 40 48 57 66 74 79 83 84 85 85 85 84 83 82 80 77 75 73 70 70 70 71 72 72 74 76 79 82 84 83 82 81 80 79 78 78 78 80 83 82 78 75 73 72 70 69 67 62 53 48 49 49 48 47 45 39 33 31 32 32 32 31 31 29 25 22
91 87 77 63 49 39 31 26 22 17 14 12 10 9 7 6 8 11 15 19 23 29 36 43 52 60 68 75 80 84 86 86 86 85 84 83 81 79 77 74 72 71 72 73 73 72 73 77 80 83 84 84 82 81 79 78 78 78 78 80 83 84 81 78 76 75 73 70 68 66 59 52 50 52 50 49 46 40 35 34 33 32 32 33 31 29 26 24
91 85 73 58 46 37 29 24 21 16 12 11 10 9 7 6 7 10 13 17 21 25 30 37 46 55 64 70 76 81 85 86 86 85 85 84 82 80 78 76 75 73 73 74 73 72 73 76 79 81 83 84 83 82 80 80 81 80 81 82 84 85 86 84 83 80 77 74 69 67 65 57 53 54 54 51 49 43 39 38 35 33 34 34 32 29 28 27
90 83 69 54 43 35 27 23 19 15 12 11 10 9 8 7 7 8 10 14 18 23 27 32 39 48 58 67 73 78 82 84 86 86 85 84 82 81 79 78 77 75 74 75 74 73 74 75 78 80 82 84 85 85 83 83 84 83 82 83 84 86 89 90 89 84 80 76 71 68 69 64 56 55 55 53 52 47 42 41 38 36 36 36 33 31 30 30
88 79 65 50 41 33 25 21 18 14 11 10 10 9 8 8 7 7 8 10 14 19 24 29 35 42 51 60 69 75 79 82 84 86 86 85 83 82 81 80 80 77 76 76 76 75 75 76 78 80 82 85 86 87 86 84 84 84 82 82 85 89 92 92 91 86 81 78 73 68 71 69 59 56 56 55 54 51 46 45 43 39 38 37 35 33 32 33
85 75 61 48 39 31 24 20 17 14 12 11 11 10 9 9 9 8 7 8 10 14 20 26 31 38 45 53 62 70 77 80 83 84 86 85 85 84 83 82 81 79 77 77 77 76 76 77 78 80 82 85 87 87 86 85 84 84 83 84 87 91 92 92 91 89 84 81 76 71 73 72 62 57 58 58 57 54 50 48 45 41 39 37 35 34 35 36
82 70 57 45 37 30 23 19 16 13 12 12 12 11 10 11 11 10 9 9 10 12 16 21 27 34 40 48 56 64 72 78 82 84 84 85 85 85 84 84 83 81 79 78 78 77 78 78 78 80 82 84 86 87 87 86 85 85 86 87 88 90 91 91 90 90 87 84 81 76 75 73 66 60 61 62 60 56 52 49 43 41 40 35 33 37 39 39
78 66 53 42 36 29 22 18 15 13 12 13 13 12 12 12 13 13 13 13 13 14 16 18 23 29 36 43 51 58 66 74 80 83 84 85 85 85 85 85 84 83 81 80 79 78 79 80 79 80 82 83 85 87 88 87 87 87 88 88 87 87 90 92 91 91 91 89 86 82 78 76 71 65 63 63 62 58 54 49 42 42 43 38 35 39 41 41
74 61 49 40 34 28 22 19 16 13 13 14 14 13 13 14 15 16 16 16 17 17 18 20 22 26 32 38 46 53 61 69 76 81 84 86 86 85 85 85 85 85 84 81 80 79 79 80 80 80 81 82 84 87 88 88 89 89 88 87 86 86 88 91 92 91 91 91 90 86 82 80 78 73 67 64 63 60 57 52 46 45 47 45 43 42 42 43
70 57 46 38 32 27 22 19 17 16 14 15 15 15 15 16 17 17 18 18 18 19 20 22 24 26 29 34 41 49 57 65 72 78 82 85 86 86 85 85 86 86 85 83 81 80 80 81 82 81 80 82 84 86 88 90 91 91 90 88 87 87 87 89 90 91 90 91 91 89 86 85 83 79 73 67 64 63 61 58 54 51 49 49 50 48 45 44
65 53 44 37 31 26 21 18 18 17 17 17 16 17 17 18 18 18 18 18 19 20 22 23 26 28 29 32 37 44 52 60 68 74 79 83 85 86 86 85 86 87 87 85 84 82 81 81 82 81 81 82 84 86 88 90 92 92 91 90 88 88 87 87 89 90 91 91 91 91 90 88 86 83 78 71 67 66 65 64 62 58 53 50 51 52 49 47
62 51 43 36 31 26 21 19 18 17 17 18 18 18 19 19 18 18 19 20 20 21 22 23 26 29 31 33 36 41 48 55 63 69 75 79 82 85 86 86 87 88 88 87 86 84 83 82 82 82 83 83 84 86 88 90 91 91 91 91 89 88 88 88 88 91 92 93 92 92 91 90 88 86 83 77 72 69 68 68 66 64 58 53 51 52 52 50
59 50 43 37 31 26 21 19 18 17 17 18 19 20 20 20 19 19 19 20 20 20 20 21 24 28 32 35 36 39 44 50 57 64 70 75 79 83 85 86 87 88 89 88 87 86 85 84 84 84 84 84 84 85 87 89 90 91 91 91 90 89 89 89 89 90 92 92 92 91 91 92 91 89 86 82 77 74 72 71 69 66 62 57 54 53 54 52
57 50 44 38 32 26 22 20 19 17 17 17 19 20 20 19 20 20 20 20 20 19 18 19 21 25 31 35 36 38 42 47 53 59 66 72 77 80 83 86 87 89 90 90 89 88 87 86 85 85 84 84 84 84 85 86 87 89 90 91 91 90 90 90 90 90 90 91 92 91 91 92 92 90 88 85 82 79 77 75 74 70 66 61 56 54 55 54
55 50 44 39 34 27 22 20 19 17 16 17 18 19 19 18 19 19 19 18 18 18 18 18 19 22 28 34 37 39 42 46 50 55 62 69 75 79 82 85 87 89 90 92 92 90 89 88 87 86 85 85 84 84 84 84 85 87 88 90 91 92 91 91 91 90 89 90 91 92 92 93 93 91 89 87 86 85 82 79 78 75 71 66 60 56 56 56
54 50 45 39 34 28 23 20 19 17 15 16 17 17 18 18 17 18 17 17 17 18 19 18 17 19 25 32 38 41 43 46 49 53 59 66 71 77 81 84 86 88 90 91 93 92 90 89 88 87 86 85 85 85 84 84 85 86 88 90 92 93 93 92 91 91 90 89 89 91 93 94 94 93 91 89 88 88 87 84 81 78 75 72 66 59 57 58
53 51 45 39 34 28 22 20 19 17 15 15 16 16 17 17 16 16 16 15 16 17 18 18 17 16 21 29 36 41 43 46 50 53 56 62 68 73 78 82 85 87 89 91 92 93 92 91 90 89 87 86 86 85 85 84 85 86 88 90 92 93 94 94 93 92 92 90 89 90 92 94 96 96 94 91 90 90 90 88 85 81 79 77 72 63 58 59
53 51 45 39 34 28 22 20 19 18 16 15 15 16 17 16 15 15 15 14 14 16 18 18 17 15 17 24 33 40 44 47 51 54 56 59 64 70 74 79 83 85 88 90 91 92 93 92 92 90 88 87 86 85 85 85 85 86 88 90 92 93 95 95 94 94 93 92 91 91 91 92 96 97 95 93 91 90 91 91 89 86 82 80 76 67 60 60
53 51 45 39 34 27 22 20 19 18 16 14 14 15 16 15 14 13 13 13 13 14 16 18 17 15 15 19 28 36 43 48 52 55 58 59 62 66 71 75 79 83 86 88 90 92 92 93 92 91 89 88 87 86 86 85 85 86 87 89 91 93 95 95 95 95 94 94 94 93 92 92 94 96 96 95 93 92 92 93 94 91 87 84 80 73 66 62
53 51 46 39 33 28 22 19 19 19 17 14 15 15 15 13 13 13 13 13 13 13 15 17 17 14 13 15 22 31 39 46 51 56 59 60 62 64 68 71 76 79 83 85 88 90 92 93 93 91 90 90 88 87 86 86 86 86 87 89 91 93 95 96 96 97 96 96 96 95 95 94 94 94 96 97 96 95 95 94 95 95 92 89 86 81 74 68
53 51 46 40 34 29 23 19 18 18 16 15 16 16 14 12 12 12 13 12 12 12 13 15 16 14 12 13 17 24 32 40 48 54 58 61 63 64 65 69 72 76 79 82 85 88 90 92 92 92 91 91 90 88 88 87 87 87 88 89 91 93 95 96 97 98 98 98 97 97 97 97 96 95 95 97 98 99 99 97 96 94 94 93 90 88 84 78
Wind_Direction
315 311 308 305 302 300 297 295 291 288 284 282 279 278 276 274 271 268 264 258 251 244 239 235 231 230 229 228 227 226 225 224 222 220 217 215 215 215 217 217 215 215 215 213 210 207 204 202 203 201 198 199 197 194 189 185 182 179 183 186 182 175 171 174 184 178 155 157 195 237 201 110 87 75 66 60 58 52 53 55 53 54 53 52 57 61 64 64
316 312 309 306 303 300 298 296 294 291 287 284 280 277 274 272 270 268 265 262 257 250 242 238 234 230 229 229 227 225 225 224 222 220 218 215 214 214 216 217 216 215 215 213 210 208 204 202 202 201 198 197 197 194 189 188 186 181 187 189 186 179 173 177 187 187 185 178 186 229 173 119 92 82 75 67 65 57 55 56 56 54 54 53 54 60 64 65
314 310 307 304 301 299 296 294 292 290 288 286 283 279 275 271 268 265 263 262 260 255 248 240 236 233 230 228 228 226 224 224 222 220 219 217 215 213 215 216 216 215 214 213 211 208 205 202 202 201 199 197 197 194 189 191 188 183 191 193 190 180 172 179 189 195 196 183 183 224 171 127 99 87 81 75 71 64 59 57 57 55 56 56 54 58 62 65
311 308 304 301 297 295 293 290 288 286 284 283 281 279 276 272 268 264 260 258 258 257 253 245 238 234 232 229 227 227 225 223 222 220 218 217 216 213 213 215 216 215 214 213 211 209 205 203 202 201 199 197 197 194 190 192 188 187 193 194 190 178 173 184 189 205 202 188 193 215 195 138 107 98 86 79 75 69 65 59 57 54 56 57 54 55 57 62
310 307 304 300 295 290 287 285 284 282 280 277 276 275 274 272 269 265 260 256 254 254 253 249 242 235 232 231 228 226 225 224 222 220 218 217 218 214 212 214 215 216 215 213 212 209 206 204 202 200 199 198 197 193 192 192 187 189 195 194 189 177 181 189 189 201 202 199 204 212 223 179 113 113 98 84 78 73 69 64 58 52 54 57 55 54 54 58
309 308 306 303 298 292 286 281 278 276 275 273 271 270 269 268 266 265 261 256 252 251 251 249 245 239 233 231 229 227 225 224 222 220 218 217 218 215 213 213 214 216 215 213 212 209 206 204 202 200 198 198 197 194 192 190 186 191 196 194 187 182 188 189 188 195 198 207 210 214 226 229 220 145 115 96 85 77 71 67 62 54 53 55 56 54 53 55
313 310 308 305 301 296 290 284 277 272 269 267 266 265 265 264 263 261 259 256 251 248 248 246 245 242 236 231 230 228 225 224 222 221 218 217 218 216 214 213 213 214 215 214 212 209 206 204 203 200 198 199 197 195 192 188 186 191 197 195 187 185 189 186 186 190 199 208 207 216 224 226 238 232 168 115 99 86 76 70 65 59 53 54 55 53 52 53
317 315 312 308 304 300 295 289 282 275 269 264 261 260 259 260 259 258 256 254 251 247 244 244 242 241 238 233 229 228 226 224 222 221 219 217 217 216 214 213 212 213 215 214 212 210 206 204 203 202 199 199 197 195 192 187 187 190 195 196 188 182 182 182 189 193 197 203 207 219 223 224 223 214 224 187 120 100 87 78 69 62 57 54 53 53 51 51
318 315 312 309 306 303 299 293 286 279 272 267 262 258 255 254 255 255 253 251 250 247 243 241 240 238 237 235 230 228 227 225 222 221 220 218 217 216 214 214 212 213 214 214 212 210 207 203 203 203 200 198 197 195 192 188 189 189 191 196 191 181 178 177 186 196 196 200 217 225 218 222 223 203 209 218 157 119 103 89 76 63 59 56 52 52 50 49
316 314 311 309 307 304 300 295 289 282 275 269 264 260 255 252 251 251 251 249 247 246 243 239 237 236 235 234 232 228 226 225 223 221 220 219 217 215 214 213 212 212 213 213 212 210 207 203 203 204 201 198 197 196 193 190 190 189 191 196 191 184 180 175 180 197 199 201 213 223 217 220 224 210 204 215 190 138 119 104 89 67 59 58 53 51 50 47
316 314 311 308 306 303 299 295 290 284 277 270 265 261 257 253 250 248 248 247 246 244 242 238 235 234 233 232 231 229 226 224 223 221 220 219 217 215 214 213 212 212 213 213 211 209 207 205 203 204 203 199 197 195 194 192 191 191 193 195 190 186 183 176 179 193 197 201 206 217 221 219 219 217 211 209 198 157 135 121 104 84 61 57 55 53 52 49
318 314 311 308 305 302 299 295 290 285 279 272 266 261 257 254 251 248 245 245 245 242 240 238 235 233 231 230 229 229 227 224 222 222 220 219 217 216 214 213 212 212 212 212 210 209 208 206 203 204 204 201 198 195 194 194 192 191 194 193 188 186 185 179 178 188 193 202 211 214 213 211 212 218 215 204 202 181 150 135 120 103 77 56 56 56 54 52
318 315 311 308 306 303 300 296 291 286 281 274 268 262 257 254 252 249 246 243 243 242 239 237 235 232 230 229 227 228 228 224 221 221 220 219 218 216 214 212 212 212 211 210 210 209 209 208 205 204 204 202 199 196 195 195 193 191 195 193 189 187 185 179 178 187 193 204 213 208 203 204 210 218 217 211 210 197 164 149 145 122 98 60 55 57 55 54
318 315 312 310 307 304 301 297 293 287 282 276 270 264 259 255 252 250 247 243 241 241 239 236 233 232 230 228 226 226 227 225 220 219 220 220 218 216 214 212 212 212 210 209 209 209 209 208 206 204 204 203 201 197 196 196 193 192 195 195 193 190 182 178 183 189 192 200 206 204 203 205 209 216 218 217 215 202 179 162 168 154 123 75 54 55 53 54
319 316 314 311 308 305 302 298 294 289 283 278 271 265 260 256 252 249 247 244 241 239 238 235 232 230 229 227 226 224 225 225 221 219 219 220 219 217 215 213 212 212 211 209 208 209 209 208 207 204 203 204 202 199 197 196 193 193 196 196 196 192 181 177 187 192 192 196 200 201 207 207 209 216 217 217 213 205 194 179 181 188 161 110 60 51 49 52
320 318 315 313 310 307 304 300 296 291 285 279 273 266 260 255 251 247 244 243 240 237 236 234 231 229 227 226 225 224 223 224 223 220 218 219 219 218 215 214 213 212 211 209 208 209 210 209 207 204 204 204 203 200 197 196 193 193 197 196 197 193 181 175 185 192 193 194 195 199 208 212 213 217 218 217 214 210 208 193 186 200 200 169 76 47 43 47
322 320 318 315 313 309 306 303 298 293 287 281 273 266 260 254 249 245 241 239 238 236 234 233 230 227 226 225 225 223 222 223 223 221 219 218 219 218 216 214 213 212 211 210 208 209 210 209 207 206 205 204 204 202 199 196 193 193 197 196 197 194 182 174 182 190 190 189 193 201 210 214 214 216 218 219 217 209 208 202 193 200 208 199 168 41 29 37
324 322 320 318 315 313 310 306 302 296 290 282 274 266 259 252 247 243 239 236 235 233 231 230 229 227 225 224 224 223 222 222 222 222 220 218 217 218 216 214 213 212 211 210 209 209 209 209 207 207 206 205 204 204 200 196 191 192 197 196 196 195 185 176 179 187 188 186 192 204 209 207 205 208 213 218 219 206 200 205 200 199 205 205 202 268 347 14
326 325 324 322 319 317 314 310 305 299 291 283 273 265 257 250 244 240 236 233 231 230 228 227 227 225 223 222 221 221 220 219 220 221 220 218 216 216 216 214 213 212 211 211 210 209 208 208 208 207 207 206 205 204 201 197 191 192 197 196 195 196 188 179 178 182 186 188 195 204 210 205 199 203 211 216 217 206 196 205 207 203 207 211 207 229 285 334
329 328 327 325 323 321 318 314 308 300 291 282 272 263 255 248 242 237 233 229 227 226 225 223 223 223 222 220 219 218 218 218 218 218 219 217 214 214 215 214 213 212 211 211 210 209 208 207 208 209 208 206 205 204 201 197 191 192 196 196 196 197 191 184 179 177 184 190 196 205 211 208 200 202 210 213 214 210 201 206 214 210 213 220 210 218 250 288
332 332 331 329 327 325 322 317 310 301 291 281 270 260 252 245 239 234 230 226 224 222 222 221 220 220 220 219 217 216 217 217 216 217 218 217 215 213 214 214 213 212 211 210 210 210 208 207 209 210 209 206 205 204 201 198 192 192 196 197 197 198 194 187 180 177 184 188 192 202 210 209 204 203 208 212 212 210 205 210 218 213 218 229 217 221 237 257
334 335 334 333 331 328 324 319 312 303 294 282 270 259 250 242 236 232 227 223 220 219 218 218 217 217 217 217 216 215 216 216 215 215 216 217 216 214 212 213 213 212 210 209 209 209 209 209 210 209 209 207 205 204 202 199 193 192 195 197 198 199 196 190 183 181 186 187 188 197 204 205 204 204 206 210 212 211 207 209 217 211 213 227 221 225 237 249
337 337 337 336 334 331 326 321 316 308 297 285 272 260 250 241 234 229 225 221 218 216 215 215 215 214 215 215 215 213 214 215 214 214 214 215 216 214 212 212 213 211 210 208 208 209 210 210 209 208 208 207 205 204 203 200 195 193 194 196 198 199 198 192 186 185 187 187 187 193 199 201 203 204 204 206 211 215 212 209 215 211 210 223 224 225 235 245
339 340 339 338 336 332 328 324 320 313 302 289 275 262 251 241 234 228 224 219 216 214 213 212 212 212 213 214 214 213 213 214 214 213 213 214 215 215 213 212 212 211 210 208 207 209 210 210 207 206 208 207 205 204 204 201 197 194 195 196 198 200 199 195 189 187 189 189 188 192 195 197 201 202 201 204 207 211 211 209 214 216 215 223 227 224 230 239
341 342 341 339 337 333 329 327 324 317 308 295 279 264 252 242 234 228 223 219 215 213 211 211 211 211 211 212 212 212 212 212 213 212 212 213 214 215 214 212 211 211 210 209 208 209 210 209 207 206 207 206 205 205 204 203 199 195 195 196 198 200 200 198 193 190 191 190 188 190 193 195 199 201 200 203 205 205 207 211 214 216 218 223 226 224 226 235
342 343 342 340 338 334 330 329 326 320 312 301 286 270 254 243 234 228 223 219 215 212 211 210 210 210 210 210 211 211 211 211 212 212 212 212 213 214 215 213 212 211 211 210 209 209 209 208 207 206 206 206 205 205 205 204 200 197 196 196 197 200 201 200 197 193 192 191 188 189 192 196 198 199 198 199 205 209 210 213 215 217 219 221 223 224 226 233
343 343 342 341 339 334 331 329 326 321 313 304 292 277 259 244 234 227 223 219 215 213 211 210 209 210 210 209 210 210 210 210 211 212 211 211 212 214 215 214 213 212 211 211 210 210 209 208 207 207 206 206 206 206 206 204 202 199 197 197 198 200 201 202 200 197 195 193 191 190 193 197 199 198 196 195 202 212 213 214 216 219 222 222 222 222 222 228
344 343 342 341 339 335 331 329 326 320 312 305 294 280 265 249 235 227 221 218 216 213 211 209 209 209 209 209 209 209 209 210 211 211 211 211 211 212 214 215 214 213 212 212 212 210 209 208 208 207 206 206 207 207 206 205 204 200 198 198 198 200 201 202 203 202 199 194 190 189 193 199 202 201 199 196 199 208 214 216 217 222 224 221 220 221 219 224
344 344 342 341 339 335 331 328 323 318 311 304 294 280 266 252 238 227 221 218 215 213 211 210 209 209 208 208 208 208 209 210 210 211 211 211 211 212 213 214 214 213 212 214 213 211 209 209 208 207 207 207 208 208 207 207 205 201 198 199 199 199 201 202 203 204 202 197 191 188 193 200 204 205 204 200 200 204 211 215 217 221 223 220 219 221 218 221
344 343 342 341 339 335 331 327 320 314 308 302 294 282 267 253 239 228 221 217 214 213 212 210 209 209 208 208 208 208 209 209 210 210 211 211 211 212 213 213 214 214 213 214 214 211 210 209 208 208 208 209 209 208 208 208 207 203 200 200 200 199 200 202 202 204 204 202 197 191 192 199 204 207 207 204 202 204 208 213 217 221 222 219 218 219 218 217
344 343 342 340 338 335 330 325 318 311 305 302 299 288 273 255 240 229 220 215 213 211 211 211 209 209 208 208 208 208 208 209 209 210 211 211 211 212 213 213 214 214 214 215 214 212 211 210 209 209 209 209 209 208 209 209 207 204 202 201 201 200 200 201 203 204 205 205 202 197 193 196 201 205 206 204 204 206 207 210 217 221 222 220 217 218 218 216
343 343 342 340 338 335 330 323 316 308 302 301 300 289 273 257 241 228 220 215 212 210 210 210 209 209 208 208 208 208 208 209 209 210 211 211 211 212 212 213 213 214 215 215 213 212 211 211 210 210 210 209 209 209 209 209 207 205 203 203 203 201 200 201 202 203 205 206 205 202 197 195 198 203 204 204 204 205 206 210 215 219 221 221 218 217 219 219
343 343 342 340 338 335 329 321 313 305 300 298 295 285 271 259 242 227 220 216 211 210 210 210 209 208 208 208 209 208 208 209 209 210 211 211 211 211 212 212 213 214 215 215 213 212 212 212 212 211 210 209 209 209 209 209 208 206 205 204 204 203 202 201 202 203 204 207 206 203 200 197 198 203 205 204 203 201 204 209 213 216 219 220 220 219 220 221
343 342 341 339 337 334 329 320 310 300 294 291 288 280 270 263 246 229 220 216 212 210 210 211 211 209 208 208 208 209 209 209 209 210 211 211 211 212 212 212 212 213 214 215 214 213 213 213 213 212 211 210 209 209 208 208 208 207 206 205 204 204 204 203 204 203 203 205 206 204 202 201 201 203 205 206 204 201 203 208 210 214 219 220 219 220 220 222
342 342 341 339 337 333 328 318 307 295 285 281 276 271 267 265 256 237 222 217 215 212 210 211 212 212 210 209 208 208 209 209 209 210 211 211 211 212 212 212 213 213 214 214 214 213 213 214 214 213 212 211 210 210 209 208 208 207 206 206 205 205 207 207 206 204 203 204 206 204 204 204 203 203 206 208 205 202 203 207 208 213 220 222 221 220 221 223
342 341 340 339 336 332 326 317 305 291 277 264 257 258 259 259 256 246 230 219 216 216 214 213 212 212 212 211 209 209 208 208 209 209 210 211 211 212 212 213 213 213 213 214 214 214 214 214 214 213 212 212 211 210 209 208 208 208 207 206 206 207 208 209 208 206 204 204 206 206 206 206 205 204 206 208 205 201 203 208 209 213 219 223 223 221 221 222
342 341 340 339 336 331 325 315 302 287 272 254 243 245 250 252 250 245 240 229 222 218 218 218 215 214 213 212 211 210 209 209 209 209 210 211 211 211 212 212 213 213 214 214 214 214 215 215 215 214 213 213 212 211 210 209 209 209 208 208 208 208 209 210 209 208 206 205 205 206 208 209 206 205 207 209 206 202 203 208 211 214 217 221 223 223 222 222
342 341 339 338 335 330 323 314 300 283 266 248 236 235 240 244 244 242 240 239 238 230 224 222 220 218 215 213 212 211 210 209 209 209 210 211 211 211 211 212 212 213 214 214 214 214 215 216 215 214 214 213 212 211 210 209 209 209 210 210 209 209 209 210 210 209 208 208 206 206 209 210 207 206 207 210 210 206 204 206 210 214 214 214 219 223 222 221
342 341 339 338 334 328 321 312 298 277 257 243 234 231 234 237 237 237 237 237 241 242 237 231 225 222 219 216 213 212 211 211 210 210 210 210 212 212 211 211 211 212 213 214 215 215 216 216 215 215 215 214 213 212 210 210 210 210 211 211 211 210 210 210 210 210 209 209 208 207 208 210 209 208 208 209 212 211 207 204 205 209 208 206 211 220 221 221
342 341 339 337 333 326 318 310 297 275 253 241 234 232 234 236 233 232 233 233 235 239 242 241 235 227 223 220 216 213 212 212 211 210 210 210 211 212 211 211 211 212 213 214 215 216 216 217 216 216 215 215 214 213 211 210 211 211 211 212 212 212 212 212 211 211 210 210 210 208 208 210 212 211 209 208 210 212 209 204 202 205 205 204 209 215 218 220
342 341 339 336 331 324 315 306 296 280 259 243 235 232 233 234 233 232 232 233 234 237 239 242 242 236 227 222 219 216 214 213 212 211 211 211 211 211 211 211 211 212 213 213 214 216 217 217 217 216 216 215 215 213 212 211 211 211 211 211 212 212 213 213 213 212 212 211 211 210 209 211 214 214 212 209 209 210 209 204 202 205 207 208 214 219 219 220
343 342 339 335 329 322 313 301 291 280 265 249 239 236 235 234 234 237 239 239 240 241 240 240 242 241 234 225 221 219 217 214 213 212 212 212 212 212 212 211 211 212 212 213 214 215 217 218 218 218 216 216 215 214 213 212 212 212 211 211 212 212 213 214 213 213 214 213 213 212 211 212 215 216 214 212 210 210 209 205 204 208 210 210 215 221 223 223
343 342 340 335 329 322 312 300 290 281 269 255 245 240 239 238 239 242 246 248 247 246 245 242 242 241 238 230 222 220 219 217 215 214 213 213 213 213 213 212 211 212 212 213 214 215 216 218 219 218 218 217 216 215 215 213 212 212 212 212 212 213 213 214 213 213 214 214 214 213 213 214 216 217 216 214 212 212 211 208 207 209 211 211 212 217 221 223
343 343 340 335 330 322 311 300 292 284 273 261 252 245 242 241 243 247 251 254 255 253 250 247 244 241 239 234 225 219 219 218 216 215 214 213 214 214 214 213 212 212 212 213 214 215 216 217 218 219 218 218 217 216 216 214 213 213 213 213 213 213 214 214 214 214 214 215 215 215 214 215 217 217 217 216 214 213 212 211 210 210 210 212 214 215 216 220
344 343 340 335 330 324 313 303 295 288 277 266 258 252 247 245 246 250 254 259 263 265 260 254 249 243 237 234 229 221 217 218 217 215 214 214 214 214 214 214 214 213 213 213 214 215 216 217 218 219 219 219 218 218 217 216 215 214 214 214 214 214 214 214 215 215 215 215 216 216 216 217 218 219 219 218 216 216 214 213 212 211 211 212 215 216 216 217
344 343 340 335 331 326 317 306 299 292 281 268 261 256 254 251 249 252 258 265 273 278 276 267 257 248 237 231 228 222 216 215 216 216 215 214 214 214 214 215 215 214 214 214 214 215 216 217 218 219 219 219 219 219 218 217 216 215 215 215 215 215 215 215 215 215 216 215 216 217 217 218 219 219 219 218 217 217 217 216 215 213 212 213 215 217 218 217
344 343 340 335 331 327 319 308 299 293 282 270 264 260 259 258 254 255 261 271 281 288 289 282 270 255 239 229 225 222 217 213 212 214 215 215 214 214 215 215 215 215 215 215 215 215 216 217 218 219 219 219 220 219 218 217 216 215 215 215 216 216 216 216 216 215 216 216 216 217 218 219 220 220 220 219 218 218 218 218 218 216 214 214 215 217 219 218
344 343 340 335 331 327 319 308 299 292 282 273 268 263 263 263 260 259 264 275 287 295 298 294 284 265 243 230 224 220 217 213 211 212 214 215 215 215 215 215 216 216 216 216 216 216 217 217 217 218 219 220 220 220 219 218 217 216 216 216 216 216 216 216 216 216 216 216 217 217 218 220 221 221 221 220 218 218 218 219 220 219 217 216 216 216 217 217
344 343 340 335 331 326 317 306 297 290 282 273 268 264 264 265 262 262 269 279 290 300 306 304 296 279 251 232 224 219 216 214 211 210 212 214 215 215 215 216 216 216 217 217 217 217 218 218 218 218 219 219 220 221 220 220 219 217 217 216 216 217 217 217 217 216 216 216 216 217 218 220 221 221 222 222 220 219 219 219 220 221 220 219 218 215 214 213
343 342 339 335 330 324 316 305 295 288 282 274 266 261 261 263 263 264 273 283 293 304 313 314 308 292 263 237 225 219 215 213 212 210 210 212 214 215 215 216 216 217 217 217 218 218 218 219 219 219 219 219 220 221 221 221 220 219 218 217 217 217 217 217 217 217 217 217 217 217 218 219 221 221 222 223 222 222 221 220 221 221 222 222 220 216 212 211
343 341 339 335 329 323 314 302 292 287 283 276 267 261 258 258 261 267 275 285 296 308 319 323 319 305 278 248 229 221 217 214 212 211 210 211 213 214 215 215 216 217 218 218 218 218 219 219 219 219 219 220 220 220 221 222 222 221 219 218 218 218 218 218 218 217 217 218 218 218 218 219 220 220 221 222 223 223 222 222 221 221 222 223 223 220 215 212
342 341 338 334 328 321 314 301 289 284 281 275 268 264 262 258 257 265 275 284 295 308 322 330 331 320 295 264 237 224 219 215 214 213 212 211 212 214 214 215 215 216 218 218 218 219 219 219 219 219 220 220 220 220 221 222 222 222 221 219 219 219 218 219 219 218 218 218 219 219 219 219 220 220 220 222 223 223 224 223 222 222 222 223 224 224 221 217
Height
10903 10902 10901 10899 10898 10898 10897 10896 10895 10894 10893 10893 10892 10892 10892 10892 10892 10893 10893 10893 10894 10895 10897 10898 10900 10901 10903 10905 10908 10910 10913 10916 10919 10923 10927 10930 10932 10936 10938 10941 10945 10947 10950 10954 10958 10962 10965 10968 10971 10975 10978 10981 10985 10988 10991 10993 10995 10996 10997 10998 10999 10999 11000 11001 11002 11004 11005 11006 11007 11007 11008 11008 11007 11006 11006 11006 11005 11005 11003 11001 11000 10998 10998 10997 10995 10994 10992 10991
10902 10900 10899 10897 10896 10895 10894 10893 10892 10891 10890 10890 10889 10889 10888 10888 10889 10889 10890 10890 10890 10891 10893 10894 10896 10898 10899 10901 10904 10906 10909 10911 10915 10919 10923 10926 10929 10932 10935 10938 10941 10944 10947 10951 10955 10959 10962 10966 10969 10972 10976 10979 10983 10986 10990 10992 10994 10995 10996 10998 10998 10999 10999 11001 11002 11004 11005 11006 11007 11008 11008 11008 11008 11008 11007 11007 11006 11006 11005 11003 11002 11000 10999 10999 10997 10996 10994 10993
10899 10897 10896 10894 10893 10892 10891 10890 10889 10888 10887 10886 10885 10885 10884 10884 10885 10885 10886 10886 10886 10887 10888 10890 10892 10894 10895 10897 10899 10902 10904 10907 10911 10915 10919 10922 10924 10927 10931 10934 10938 10941 10944 10948 10952 10955 10959 10962 10966 10970 10974 10977 10981 10985 10988 10991 10993 10995 10996 10997 10997 10998 10999 11000 11002 11004 11005 11006 11007 11008 11008 11008 11009 11009 11008 11008 11007 11007 11006 11005 11004 11003 11001 11000 10999 10998 10996 10995
10896 10894 10892 10891 10889 10888 10887 10886 10885 10884 10884 10882 10881 10880 10880 10880 10880 10881 10881 10882 10882 10882 10883 10885 10887 10889 10891 10893 10895 10897 10900 10902 10906 10910 10914 10918 10920 10924 10928 10931 10934 10938 10940 10944 10948 10952 10956 10960 10964 10968 10972 10975 10979 10983 10987 10989 10992 10994 10994 10995 10996 10997 10999 11000 11001 11003 11004 11006 11007 11008 11009 11009 11009 11009 11009 11009 11008 11007 11007 11007 11006 11005 11003 11002 11000 10999 10998 10997
10891 10890 10888 10886 10884 10883 10882 10880 10879 10879 10878 10877 10876 10875 10875 10875 10875 10876 10876 10878 10878 10878 10878 10879 10882 10884 10887 10889 10890 10893 10895 10898 10902 10906 10910 10913 10916 10920 10924 10927 10931 10933 10936 10940 10944 10949 10954 10958 10962 10966 10970 10973 10977 10980 10984 10987 10990 10991 10991 10993 10995 10997 10998 10999 11000 11002 11004 11006 11007 11008 11009 11009 11009 11010 11010 11010 11010 11009 11008 11008 11007 11007 11005 11003 11002 11001 11000 10999
10887 10885 10883 10881 10879 10877 10876 10875 10874 10872 10871 10870 10870 10869 10868 10869 10869 10870 10871 10872 10873 10873 10873 10874 10876 10878 10881 10884 10886 10888 10891 10894 10897 10901 10905 10908 10911 10916 10920 10923 10926 10929 10932 10936 10940 10946 10951 10956 10960 10964 10968 10971 10974 10978 10982 10985 10989 10989 10989 10991 10995 10997 10997 10998 10999 11001 11003 11006 11008 11009 11009 11010 11010 11010 11010 11010 11011 11010 11009 11009 11009 11009 11007 11006 11004 11003 11002 11001
10882 10879 10877 10875 10873 10872 10870 10869 10867 10866 10864 10863 10863 10862 10862 10861 10862 10863 10864 10866 10867 10868 10868 10869 10871 10873 10876 10878 10880 10883 10885 10889 10893 10896 10900 10903 10906 10911 10915 10918 10921 10925 10928 10932 10937 10943 10948 10953 10957 10962 10965 10968 10972 10975 10979 10983 10986 10986 10987 10990 10994 10995 10996 10997 10999 11000 11002 11004 11006 11007 11008 11009 11010 11011 11010 11010 11011 11011 11010 11009 11009 11010 11009 11008 11006 11005 11004 11003
10876 10874 10871 10869 10867 10865 10863 10862 10861 10859 10858 10856 10855 10855 10855 10854 10854 10855 10857 10858 10860 10862 10862 10863 10865 10867 10870 10872 10875 10877 10880 10884 10887 10891 10894 10898 10901 10905 10910 10913 10918 10921 10924 10929 10934 10939 10945 10950 10955 10959 10963 10965 10969 10973 10976 10980 10982 10983 10985 10988 10991 10993 10994 10997 10998 11000 11001 11003 11004 11006 11007 11008 11009 11011 11011 11010 11010 11011 11011 11010 11010 11010 11010 11009 11008 11007 11006 11005
10872 10868 10865 10862 10859 10857 10855 10854 10852 10851 10850 10848 10847 10846 10847 10846 10846 10846 10848 10850 10852 10854 10856 10857 10859 10862 10864 10866 10868 10871 10875 10878 10881 10885 10889 10892 10896 10900 10905 10909 10914 10917 10920 10924 10929 10934 10941 10947 10952 10956 10959 10962 10966 10970 10974 10977 10979 10981 10983 10986 10989 10991 10992 10995 10997 10999 11000 11002 11004 11005 11006 11008 11009 11010 11011 11011 11010 11011 11011 11011 11010 11011 11011 11011 11010 11008 11008 11007
10866 10863 10859 10856 10852 10850 10847 10845 10843 10842 10841 10839 10838 10837 10837 10838 10838 10838 10839 10841 10844 10846 10849 10851 10853 10855 10858 10860 10862 10865 10868 10871 10876 10880 10883 10887 10891 10895 10899 10904 10909 10912 10915 10919 10925 10931 10939 10945 10949 10952 10956 10959 10963 10967 10971 10974 10977 10979 10981 10984 10987 10990 10991 10993 10996 10998 11000 11001 11003 11005 11006 11007 11008 11009 11011 11011 11011 11011 11012 11011 11011 11011 11012 11011 11010 11009 11009 11008
10859 10856 10852 10849 10845 10842 10838 10835 10833 10831 10830 10829 10828 10827 10827 10828 10828 10829 10830 10831 10834 10838 10841 10844 10846 10848 10851 10853 10856 10859 10862 10865 10870 10874 10877 10881 10885 10890 10894 10899 10904 10907 10910 10915 10921 10929 10936 10941 10945 10948 10952 10956 10959 10964 10968 10971 10974 10978 10980 10982 10986 10989 10991 10993 10995 10997 10998 11000 11003 11005 11006 11006 11008 11009 11010 11011 11011 11011 11012 11012 11011 11012 11012 11012 11011 11010 11010 11009
10852 10848 10844 10840 10836 10832 10828 10825 10822 10820 10819 10818 10817 10817 10817 10817 10818 10819 10820 10822 10825 10828 10832 10836 10838 10841 10844 10847 10850 10853 10856 10859 10864 10867 10871 10875 10879 10884 10889 10894 10898 10901 10906 10911 10918 10926 10931 10936 10941 10945 10948 10952 10956 10961 10965 10968 10972 10976 10979 10981 10985 10988 10990 10992 10994 10995 10997 10999 11001 11004 11005 11006 11007 11009 11010 11011 11011 11011 11012 11012 11012 11012 11012 11012 11011 11011 11010 11010
10843 10839 10835 10831 10826 10822 10817 10813 10810 10808 10806 10805 10805 10805 10805 10806 10807 10808 10810 10812 10815 10818 10823 10827 10831 10835 10837 10841 10844 10847 10848 10852 10856 10860 10864 10868 10873 10878 10883 10888 10892 10896 10901 10908 10915 10922 10927 10932 10937 10940 10944 10949 10954 10958 10962 10965 10969 10974 10977 10980 10983 10986 10988 10990 10992 10994 10996 10998 11000 11003 11004 11005 11007 11008 11009 11010 11011 11012 11012 11012 11013 11012 11013 11013 11012 11012 11011 11011
10835 10830 10825 10820 10815 10810 10805 10801 10797 10794 10792 10791 10790 10791 10792 10793 10795 10797 10799 10802 10805 10808 10813 10819 10823 10827 10830 10834 10837 10839 10840 10844 10848 10853 10859 10863 10867 10872 10878 10883 10887 10892 10897 10904 10912 10917 10922 10927 10931 10935 10941 10946 10950 10955 10959 10962 10967 10972 10975 10978 10981 10984 10986 10989 10991 10993 10995 10997 10999 11001 11003 11005 11006 11008 11009 11009 11011 11011 11012 11012 11013 11013 11013 11013 11013 11013 11012 11012
10826 10820 10815 10809 10803 10798 10792 10787 10783 10779 10776 10775 10775 10776 10777 10779 10782 10785 10787 10790 10794 10798 10803 10809 10814 10818 10822 10825 10828 10830 10833 10838 10843 10849 10854 10858 10862 10868 10874 10879 10883 10888 10893 10901 10908 10913 10916 10920 10925 10932 10937 10941 10946 10950 10955 10959 10965 10969 10971 10975 10979 10982 10984 10987 10990 10992 10994 10996 10998 11000 11002 11004 11005 11007 11008 11009 11010 11011 11012 11012 11013 11013 11013 11014 11014 11014 11013 11013
10816 10810 10803 10797 10790 10784 10779 10773 10768 10763 10760 10759 10759 10760 10761 10763 10766 10769 10773 10777 10782 10787 10792 10798 10804 10808 10813 10816 10819 10823 10828 10833 10838 10843 10847 10852 10857 10863 10869 10874 10879 10884 10890 10897 10903 10908 10911 10915 10922 10929 10932 10936 10941 10946 10951 10955 10960 10965 10968 10972 10976 10980 10983 10985 10989 10991 10992 10994 10997 10999 11001 11002 11004 11005 11007 11008 11010 11011 11011 11012 11013 11014 11014 11014 11014 11014 11014 11014
10806 10799 10792 10785 10777 10770 10764 10758 10752 10747 10744 10743 10742 10742 10744 10747 10750 10754 10759 10764 10769 10775 10781 10787 10792 10798 10803 10807 10812 10818 10824 10828 10832 10836 10842 10847 10852 10857 10862 10868 10873 10879 10886 10892 10898 10902 10905 10911 10919 10924 10927 10932 10937 10941 10946 10950 10956 10961 10965 10969 10974 10978 10981 10984 10987 10988 10990 10993 10995 10997 10999 11001 11003 11004 11006 11008 11009 11010 11011 11012 11013 11014 11014 11014 11015 11015 11015 11015
10796 10788 10780 10772 10764 10757 10750 10743 10736 10731 10728 10726 10725 10725 10727 10730 10734 10738 10744 10750 10756 10762 10770 10776 10781 10787 10793 10800 10807 10813 10818 10822 10826 10830 10835 10840 10845 10850 10856 10862 10868 10875 10881 10886 10892 10896 10901 10907 10914 10918 10923 10928 10932 10935 10939 10945 10953 10960 10963 10967 10971 10975 10979 10982 10985 10986 10988 10991 10993 10995 10997 10999 11001 11003 11005 11006 11009 11010 11010 11012 11013 11013 11014 11014 11015 11016 11016 11016
10786 10777 10769 10760 10751 10743 10736 10728 10721 10716 10712 10710 10709 10709 10711 10714 10718 10723 10729 10736 10742 10749 10757 10764 10769 10777 10784 10791 10799 10805 10810 10814 10818 10821 10825 10831 10837 10843 10849 10856 10863 10870 10876 10881 10885 10890 10896 10902 10909 10914 10917 10920 10923 10928 10936 10945 10952 10957 10959 10964 10968 10972 10976 10979 10982 10984 10986 10989 10991 10993 10994 10996 10999 11002 11003 11005 11008 11009 11010 11011 11012 11013 11014 11014 11015 11016 11017 11017
10776 10767 10758 10748 10739 10730 10722 10715 10708 10702 10698 10696 10695 10695 10697 10700 10704 10709 10715 10722 10729 10736 10744 10751 10758 10766 10774 10781 10789 10796 10800 10804 10808 10813 10817 10823 10830 10837 10843 10849 10856 10863 10869 10874 10879 10884 10890 10897 10902 10904 10905 10910 10917 10925 10935 10943 10948 10952 10955 10959 10963 10967 10973 10976 10979 10983 10985 10987 10989 10991 10993 10995 10998 11000 11002 11005 11007 11008 11010 11011 11012 11013 11014 11014 11015 11016 11017 11018
10767 10758 10748 10737 10728 10719 10710 10703 10696 10691 10687 10685 10684 10684 10685 10688 10692 10696 10702 10709 10717 10725 10733 10740 10748 10755 10763 10771 10780 10786 10790 10795 10801 10806 10811 10817 10824 10830 10836 10843 10850 10856 10861 10867 10874 10879 10885 10890 10892 10894 10899 10908 10916 10923 10932 10938 10943 10947 10951 10955 10960 10965 10970 10974 10977 10981 10983 10985 10987 10990 10992 10994 10997 10999 11001 11003 11005 11007 11009 11010 11011 11012 11013 11014 11015 11017 11017 11018
10758 10748 10738 10727 10717 10708 10700 10693 10687 10682 10679 10677 10676 10676 10677 10679 10682 10685 10691 10698 10705 10714 10722 10730 10737 10745 10753 10761 10770 10776 10781 10787 10794 10799 10805 10811 10817 10824 10830 10837 10842 10847 10853 10861 10868 10873 10877 10880 10881 10888 10898 10906 10912 10920 10927 10934 10939 10943 10947 10952 10957 10962 10967 10971 10975 10978 10980 10982 10985 10988 10990 10993 10995 10997 11000 11002 11004 11006 11007 11009 11011 11012 11013 11014 11015 11016 11017 11018
10750 10740 10729 10718 10708 10699 10691 10685 10680 10675 10672 10671 10670 10669 10670 10672 10674 10678 10683 10689 10696 10704 10712 10720 10728 10736 10743 10751 10759 10767 10773 10779 10786 10792 10798 10803 10809 10816 10823 10829 10833 10840 10847 10854 10860 10864 10866 10868 10875 10886 10894 10900 10908 10915 10922 10929 10935 10939 10943 10947 10952 10957 10962 10968 10972 10974 10976 10979 10983 10986 10988 10990 10993 10996 10998 11000 11002 11004 11006 11008 11010 11011 11013 11014 11015 11016 11017 11018
10742 10732 10721 10710 10700 10692 10684 10679 10674 10670 10667 10666 10665 10664 10665 10666 10668 10671 10676 10682 10688 10696 10703 10710 10718 10725 10733 10741 10750 10758 10766 10772 10779 10786 10791 10797 10802 10809 10815 10821 10826 10833 10840 10847 10852 10854 10856 10862 10873 10882 10888 10895 10904 10911 10917 10924 10929 10934 10938 10942 10947 10952 10958 10963 10967 10970 10972 10976 10979 10983 10986 10988 10991 10994 10996 10999 11001 11003 11005 11008 11010 11011 11012 11014 11016 11017 11017 11018
10735 10725 10714 10704 10694 10685 10679 10673 10669 10666 10663 10662 10661 10660 10661 10662 10664 10667 10670 10675 10681 10687 10694 10701 10708 10716 10724 10733 10742 10750 10758 10764 10771 10778 10784 10790 10796 10802 10807 10814 10820 10827 10833 10839 10844 10846 10850 10860 10870 10877 10883 10891 10899 10905 10911 10917 10924 10929 10932 10937 10942 10947 10953 10958 10962 10965 10969 10973 10976 10980 10984 10986 10989 10991 10994 10997 10999 11001 11004 11007 11008 11010 11012 11014 11015 11017 11018 11018
10729 10719 10708 10698 10688 10680 10674 10669 10665 10662 10660 10659 10658 10657 10657 10658 10660 10663 10666 10670 10675 10680 10687 10695 10702 10710 10717 10726 10735 10743 10750 10757 10763 10770 10777 10784 10790 10795 10801 10808 10814 10820 10826 10832 10836 10839 10846 10857 10865 10871 10879 10886 10892 10898 10904 10911 10918 10922 10927 10932 10937 10941 10947 10952 10956 10961 10965 10970 10974 10977 10981 10984 10986 10989 10991 10994 10997 11000 11002 11005 11007 11009 11011 11012 11015 11016 11018 11018
10722 10713 10702 10692 10684 10676 10671 10666 10662 10659 10657 10656 10655 10654 10654 10655 10656 10659 10662 10665 10670 10675 10681 10689 10696 10703 10711 10720 10728 10736 10743 10750 10756 10763 10770 10777 10783 10789 10796 10802 10807 10813 10819 10825 10830 10834 10842 10851 10858 10866 10874 10880 10887 10891 10896 10903 10909 10914 10921 10928 10932 10936 10941 10947 10953 10958 10963 10968 10971 10974 10977 10981 10983 10985 10988 10991 10995 10998 11000 11003 11005 11007 11009 11011 11013 11015 11017 11018
10716 10707 10697 10687 10679 10673 10667 10663 10660 10657 10655 10654 10653 10652 10652 10652 10654 10656 10658 10661 10665 10670 10676 10683 10690 10697 10705 10713 10721 10728 10736 10742 10749 10755 10763 10770 10776 10783 10789 10794 10801 10807 10814 10821 10824 10829 10838 10846 10853 10861 10868 10875 10880 10883 10888 10895 10900 10908 10917 10923 10927 10932 10939 10946 10952 10957 10961 10965 10968 10971 10974 10977 10980 10983 10986 10989 10992 10995 10998 11000 11003 11005 11008 11010 11012 11014 11016 11017
10711 10702 10692 10683 10676 10669 10664 10660 10658 10656 10654 10652 10651 10651 10650 10650 10651 10653 10655 10657 10661 10666 10671 10678 10685 10692 10700 10707 10714 10721 10728 10735 10742 10750 10757 10764 10770 10776 10781 10787 10795 10802 10810 10815 10818 10826 10835 10842 10849 10857 10864 10869 10871 10876 10883 10888 10894 10905 10914 10918 10922 10929 10936 10942 10947 10953 10957 10961 10964 10968 10971 10974 10978 10981 10984 10987 10990 10993 10995 10998 11001 11004 11006 11009 11011 11012 11014 11015
10706 10697 10687 10679 10672 10666 10662 10658 10656 10654 10652 10651 10650 10649 10649 10649 10650 10651 10653 10655 10658 10663 10667 10673 10680 10687 10694 10701 10707 10715 10722 10730 10737 10744 10751 10757 10763 10769 10775 10782 10791 10798 10805 10809 10814 10824 10832 10838 10846 10853 10857 10860 10864 10871 10877 10882 10891 10903 10911 10915 10919 10926 10931 10936 10941 10945 10949 10953 10958 10963 10966 10971 10975 10978 10982 10985 10987 10990 10992 10995 10999 11002 11005 11007 11009 11010 11011 11013
10701 10692 10683 10674 10668 10663 10659 10656 10654 10652 10651 10650 10649 10648 10648 10648 10648 10649 10651 10653 10656 10659 10663 10669 10675 10682 10688 10695 10702 10709 10716 10724 10730 10737 10743 10750 10757 10765 10771 10779 10787 10794 10799 10803 10810 10819 10826 10833 10841 10844 10846 10851 10859 10866 10871 10879 10891 10901 10908 10913 10917 10922 10928 10933 10936 10939 10943 10947 10953 10958 10962 10967 10971 10974 10978 10981 10983 10987 10990 10993 10996 10999 11002 11004 11006 11007 11010 11012
10697 10688 10679 10670 10665 10660 10656 10654 10652 10650 10649 10649 10648 10647 10647 10647 10647 10648 10649 10651 10654 10657 10660 10664 10670 10676 10683 10689 10696 10703 10710 10716 10723 10730 10736 10744 10752 10759 10766 10774 10782 10788 10793 10797 10805 10813 10820 10827 10831 10833 10837 10845 10854 10861 10868 10878 10888 10896 10905 10911 10915 10920 10925 10929 10932 10935 10939 10944 10949 10954 10959 10963 10967 10971 10975 10978 10981 10985 10988 10991 10993 10996 10999 11001 11004 11007 11009 11011
10692 10683 10675 10667 10661 10657 10654 10651 10650 10649 10648 10647 10647 10646 10646 10646 10646 10647 10648 10650 10652 10654 10657 10660 10664 10670 10676 10683 10689 10696 10703 10711 10718 10724 10731 10739 10747 10754 10761 10769 10777 10782 10786 10791 10799 10807 10813 10818 10821 10826 10833 10843 10851 10858 10867 10877 10884 10892 10901 10906 10910 10916 10921 10924 10926 10929 10935 10940 10945 10950 10956 10961 10965 10968 10972 10976 10979 10982 10985 10988 10991 10994 10996 10998 11002 11006 11007 11009
10688 10679 10671 10664 10658 10654 10651 10649 10648 10647 10646 10646 10645 10645 10644 10645 10645 10646 10647 10648 10650 10653 10655 10659 10662 10665 10670 10676 10683 10690 10698 10706 10713 10720 10727 10734 10743 10750 10758 10765 10770 10775 10780 10786 10793 10801 10807 10811 10816 10822 10831 10839 10847 10853 10861 10868 10874 10881 10888 10894 10901 10908 10913 10914 10915 10919 10927 10933 10939 10946 10954 10958 10961 10965 10969 10974 10977 10979 10982 10986 10989 10991 10992 10995 11000 11003 11005 11007
10683 10675 10668 10661 10655 10652 10649 10647 10646 10645 10645 10645 10644 10643 10643 10644 10645 10646 10647 10648 10649 10651 10654 10656 10659 10663 10667 10672 10678 10684 10693 10701 10708 10715 10722 10730 10738 10746 10753 10758 10763 10768 10774 10780 10787 10794 10800 10804 10809 10816 10825 10833 10839 10845 10852 10858 10864 10871 10879 10887 10895 10900 10901 10903 10906 10913 10922 10929 10936 10943 10949 10953 10957 10962 10967 10971 10974 10977 10980 10983 10985 10987 10989 10992 10997 11000 11002 11004
10678 10670 10663 10658 10653 10649 10647 10645 10644 10643 10643 10643 10643 10642 10643 10643 10644 10645 10646 10647 10649 10650 10652 10654 10656 10659 10664 10669 10674 10680 10687 10694 10702 10709 10716 10724 10732 10739 10746 10751 10756 10762 10768 10773 10780 10786 10792 10796 10802 10809 10817 10823 10829 10836 10845 10853 10860 10867 10875 10883 10887 10888 10889 10894 10903 10913 10921 10928 10935 10941 10944 10949 10955 10961 10964 10967 10970 10972 10975 10978 10981 10984 10987 10990 10994 10997 10999 11000
10674 10665 10659 10654 10650 10647 10645 10643 10642 10641 10641 10642 10641 10641 10642 10642 10643 10644 10645 10646 10648 10649 10650 10652 10654 10657 10660 10665 10670 10676 10682 10688 10695 10702 10709 10717 10724 10731 10738 10744 10750 10756 10762 10767 10773 10779 10785 10789 10795 10803 10809 10814 10822 10831 10839 10848 10855 10862 10869 10873 10873 10876 10883 10891 10901 10910 10918 10925 10932 10937 10941 10948 10955 10959 10961 10962 10965 10967 10971 10974 10978 10982 10985 10988 10991 10994 10995 10997
10670 10662 10656 10651 10647 10644 10642 10641 10640 10639 10639 10640 10640 10640 10640 10641 10641 10642 10644 10645 10646 10647 10649 10650 10652 10655 10657 10661 10666 10671 10677 10683 10689 10695 10702 10709 10715 10722 10729 10736 10743 10750 10756 10761 10767 10772 10777 10781 10788 10795 10801 10807 10816 10824 10833 10842 10849 10855 10859 10861 10864 10872 10881 10888 10897 10906 10913 10920 10926 10931 10936 10944 10952 10955 10956 10957 10960 10964 10968 10972 10976 10980 10983 10986 10989 10989 10991 10994
10666 10658 10652 10648 10644 10641 10640 10639 10638 10638 10638 10638 10638 10638 10639 10639 10640 10641 10642 10644 10645 10646 10647 10649 10650 10652 10655 10658 10662 10667 10672 10678 10683 10689 10694 10700 10707 10714 10722 10729 10737 10743 10749 10755 10760 10765 10769 10774 10781 10787 10793 10802 10810 10818 10827 10836 10842 10846 10850 10855 10863 10870 10875 10881 10889 10897 10904 10912 10918 10924 10931 10940 10945 10947 10949 10952 10958 10963 10966 10970 10975 10978 10979 10982 10984 10985 10987 10991
10662 10655 10649 10645 10642 10639 10637 10636 10636 10635 10635 10636 10636 10636 10637 10638 10639 10639 10640 10642 10643 10644 10645 10646 10648 10650 10652 10655 10659 10663 10667 10672 10677 10683 10687 10693 10699 10707 10715 10723 10731 10737 10743 10749 10754 10759 10763 10768 10774 10780 10788 10796 10803 10811 10820 10828 10832 10836 10843 10852 10861 10867 10872 10878 10884 10891 10899 10906 10911 10918 10927 10933 10936 10938 10942 10948 10954 10959 10963 10966 10971 10974 10974 10976 10979 10982 10985 10987
10659 10652 10647 10643 10639 10637 10635 10634 10633 10633 10633 10633 10634 10634 10635 10636 10637 10637 10638 10639 10641 10642 10643 10644 10645 10646 10649 10652 10655 10659 10662 10666 10671 10677 10682 10687 10693 10700 10708 10716 10723 10730 10736 10742 10748 10753 10757 10762 10767 10774 10783 10790 10795 10803 10811 10817 10822 10828 10837 10845 10852 10859 10866 10874 10881 10889 10896 10901 10907 10914 10921 10924 10927 10931 10937 10944 10950 10954 10957 10961 10965 10968 10970 10972 10975 10978 10981 10984
10656 10650 10645 10641 10637 10635 10633 10632 10631 10630 10630 10631 10631 10632 10632 10633 10634 10635 10636 10637 10638 10639 10641 10642 10642 10643 10645 10649 10652 10654 10657 10661 10666 10671 10677 10683 10689 10695 10702 10709 10716 10722 10729 10735 10740 10745 10751 10756 10761 10769 10776 10781 10788 10795 10802 10808 10815 10823 10831 10838 10845 10852 10859 10866 10876 10883 10889 10894 10901 10908 10914 10918 10922 10926 10932 10939 10944 10947 10951 10955 10958 10963 10966 10969 10972 10975 10978 10981
10653 10648 10643 10639 10636 10633 10631 10629 10628 10628 10628 10628 10629 10629 10630 10631 10631 10632 10633 10634 10635 10636 10637 10639 10639 10639 10641 10643 10647 10650 10652 10656 10661 10667 10672 10679 10684 10690 10696 10702 10708 10715 10721 10728 10733 10739 10744 10749 10754 10761 10767 10773 10780 10787 10793 10801 10809 10817 10825 10832 10840 10847 10853 10860 10867 10873 10878 10886 10893 10900 10907 10912 10915 10919 10925 10932 10937 10941 10945 10949 10952 10956 10961 10964 10967 10969 10973 10977
10650 10645 10640 10636 10634 10631 10629 10627 10626 10626 10626 10626 10626 10627 10627 10628 10628 10629 10630 10631 10632 10633 10634 10635 10635 10635 10636 10638 10642 10645 10648 10652 10657 10662 10668 10673 10678 10684 10689 10695 10701 10707 10713 10719 10725 10731 10736 10740 10745 10752 10759 10765 10772 10779 10786 10795 10804 10812 10819 10828 10835 10841 10847 10853 10859 10865 10872 10881 10888 10895 10902 10905 10907 10912 10918 10924 10929 10933 10938 10942 10945 10950 10955 10958 10961 10963 10967 10972
10647 10642 10637 10634 10631 10629 10627 10625 10624 10624 10624 10624 10624 10624 10624 10625 10626 10627 10628 10628 10628 10628 10629 10630 10630 10629 10630 10632 10636 10640 10643 10646 10651 10656 10661 10666 10671 10677 10682 10688 10693 10699 10705 10711 10717 10723 10728 10733 10738 10745 10752 10759 10767 10774 10782 10791 10801 10809 10817 10824 10829 10834 10840 10846 10852 10860 10868 10876 10882 10890 10896 10898 10901 10907 10913 10918 10922 10925 10929 10933 10937 10942 10947 10951 10955 10958 10962 10967
10645 10640 10635 10631 10629 10627 10625 10623 10622 10622 10622 10621 10621 10621 10621 10622 10623 10624 10624 10625 10624 10624 10624 10624 10624 10624 10624 10626 10629 10633 10637 10641 10645 10650 10654 10658 10663 10668 10674 10680 10686 10692 10698 10704 10710 10715 10721 10726 10733 10739 10746 10754 10761 10768 10776 10785 10795 10803 10810 10816 10821 10827 10833 10839 10846 10855 10862 10868 10875 10881 10886 10889 10893 10898 10904 10910 10914 10917 10921 10925 10928 10935 10940 10944 10948 10952 10956 10962
10644 10638 10633 10629 10626 10625 10623 10621 10619 10619 10619 10619 10618 10618 10618 10619 10620 10621 10621 10622 10621 10620 10619 10619 10619 10619 10619 10620 10622 10626 10630 10635 10639 10642 10646 10651 10656 10661 10667 10673 10679 10685 10691 10697 10703 10709 10714 10720 10726 10732 10740 10747 10754 10760 10768 10776 10785 10792 10799 10806 10812 10818 10825 10831 10839 10847 10853 10860 10868 10874 10878 10880 10883 10888 10894 10900 10905 10909 10913 10917 10921 10927 10933 10937 10942 10946 10951 10957
10641 10637 10632 10627 10624 10622 10620 10618 10617 10616 10617 10616 10616 10616 10616 10616 10617 10617 10618 10619 10618 10617 10615 10614 10614 10614 10614 10615 10616 10620 10624 10629 10633 10636 10640 10645 10650 10654 10660 10666 10672 10678 10685 10691 10697 10703 10708 10713 10719 10726 10734 10741 10747 10753 10761 10768 10776 10784 10790 10796 10802 10809 10815 10822 10830 10837 10845 10853 10859 10864 10869 10872 10874 10879 10885 10892 10897 10902 10906 10911 10915 10920 10926 10930 10936 10941 10946 10950
10639 10634 10630 10626 10622 10620 10618 10616 10614 10614 10614 10614 10614 10613 10613 10614 10614 10614 10615 10616 10616 10614 10612 10611 10610 10609 10610 10610 10612 10614 10618 10623 10627 10631 10635 10639 10643 10648 10654 10660 10665 10671 10678 10684 10690 10696 10702 10707 10713 10720 10728 10735 10741 10747 10754 10760 10768 10776 10782 10788 10794 10799 10806 10813 10820 10828 10836 10843 10848 10854 10859 10863 10866 10872 10879 10885 10891 10896 10900 10904 10907 10912 10918 10923 10930 10936 10941 10944
10636 10632 10628 10624 10620 10618 10616 10613 10612 10611 10611 10612 10612 10611 10611 10612 10612 10612 10612 10613 10613 10612 10610 10608 10606 10605 10605 10606 10607 10609 10612 10616 10621 10625 10629 10633 10637 10642 10648 10654 10659 10665 10671 10677 10683 10689 10695 10701 10707 10715 10722 10728 10734 10741 10747 10753 10760 10767 10774 10781 10786 10791 10797 10804 10812 10819 10827 10833 10838 10843 10849 10852 10857 10865 10871 10877 10883 10887 10890 10894 10897 10902 10909 10916 10923 10930 10934 10938
10634 10629 10625 10622 10618 10616 10614 10612 10609 10608 10609 10609 10609 10609 10609 10610 10610 10609 10610 10610 10610 10610 10608 10606 10603 10602 10602 10602 10603 10605 10607 10610 10614 10619 10623 10627 10631 10636 10641 10647 10654 10660 10665 10671 10677 10683 10688 10693 10700 10708 10715 10720 10726 10733 10739 10745 10752 10758 10765 10771 10777 10783 10789 10795 10802 10810 10816 10822 10828 10834 10838 10842 10847 10854 10861 10867 10871 10874 10877 10882 10887 10894 10901 10908 10915 10921 10927 10931
10631 10626 10622 10619 10615 10613 10612 10610 10608 10606 10607 10607 10606 10606 10607 10608 10608 10608 10608 10608 10608 10608 10606 10604 10602 10600 10599 10599 10600 10601 10603 10606 10609 10613 10617 10622 10625 10630 10635 10641 10646 10652 10658 10664 10670 10675 10680 10686 10694 10701 10707 10713 10720 10726 10730 10736 10742 10748 10754 10761 10767 10773 10780 10787 10793 10800 10807 10813 10819 10824 10829 10833 10838 10845 10851 10856 10860 10863 10866 10871 10878 10887 10895 10902 10908 10913 10918 10922